Regional Weather Roundup
Issued by NWS

Home | Current Version | Previous Version | Graphics & Text | Print | Product List | Glossary On
Versions: 1 2 3 4 5 6 7 8 9 10 11 12 13 14 15 16 17 18 19 20 21 22 23 24 25 26 27 28 29 30 31 32 33 34 35 36 37 38 39 40 41 42 43 44 45 46 47 48 49 50
000
ASUS43 KMPX 190010
RWRMN
WEATHER ROUNDUP FOR MINNESOTA
NATIONAL WEATHER SERVICE TWIN CITIES/CHANHASSEN MN
700 PM CDT WED APR 18 2018


NOTE: "FAIR" INDICATES FEW OR NO CLOUDS BELOW 12,000 FEET WITH NO
SIGNIFICANT WEATHER AND/OR OBSTRUCTIONS TO VISIBILITY. N/A MEANS
CURRENT SKY AND/OR WEATHER CONDITIONS ARE NOT AVAILABLE.

MNZ060>063-068>070-190100-
   Twin Cities Metro

CITY           SKY/WX    TMP DP  RH WIND       PRES   REMARKS
TWIN CITIES    CLOUDY    39  29  67 N7        30.07R
6HR MIN TEMP:  35; 6HR MAX TEMP:  40;

ST PAUL        FAIR      39  28  64 NW8       30.07R
CRYSTAL        FAIR      42  25  50 N8        30.06R
BLAINE         CLOUDY    43  27  52 NE13G22   30.06R
LAKEVILLE      FAIR      37  28  70 NW5       30.06R
EDEN PRAIRIE   FAIR      41  26  55 N7        30.05R
6HR MIN TEMP:  35; 6HR MAX TEMP:  41;

SOUTH ST PAUL  FAIR      40  27  59 N7        30.06R
LAKE ELMO      FAIR      41  30  65 N5        30.07R
$$
MNZ001>005-007-008-013>017-022>024-027-028-190100-
   Northwest Minnesota

CITY           SKY/WX    TMP DP  RH WIND       PRES   REMARKS
BEMIDJI        FAIR      46  15  29 NE8       30.15R
HALLOCK        FAIR      54  21  28 SE9       30.20R
ROSEAU         FAIR      46  21  36 E7        30.21S
WARROAD        FAIR      46  14  27 NE5       30.22R
THIEF RVR FALL FAIR      50  17  27 NE9       30.19R
CROOKSTON      FAIR      46  32  57 NE7       30.18S
FOSSTON        FAIR      48  18  29 NE8       30.17R
DETROIT LAKES  FAIR      46  23  39 NE6       30.15R
MOORHEAD       FAIR      50  28  43 NE10      30.16R
PARK RAPIDS    FAIR      48  18  30 NE10G17   30.13R
MAHNOMEN       FAIR      48  20  33 NE12      30.15R
$$
MNZ006-009>011-018-025>026-190100-
   North Central Minnesota

CITY           SKY/WX    TMP DP  RH WIND       PRES   REMARKS
BAUDETTE       FAIR      48  12  23 NE7       30.18R
FLAG ISLAND    FAIR      45   7  21 N7        30.20S
INTL FALLS     FAIR      46  11  24 NE5       30.17S
6HR MIN TEMP:  42; 6HR MAX TEMP:  48;

WASKISH        PTSUNNY   48  14  25 NE7       30.18R
BIG FORK       FAIR      46   9  21 N6        30.16R
LONGVILLE      FAIR      46  10  23 NE6       30.14R
GRAND RAPIDS   FAIR      47  10  22 N10       30.15R
CRANE LAKE     FAIR      46   9  21 N5          N/A
ORR            FAIR      46   1  15 NE3       30.13R
COOK           FAIR      46  10  23 NE7       30.15R
WALKER         FAIR      46  12  26 NE6       30.15R
$$
MNZ012-019>021-037-190100-
   Northeast Minnesota

CITY           SKY/WX    TMP DP  RH WIND       PRES   REMARKS
DULUTH         FAIR      38  12  34 E16       30.13R
6HR MIN TEMP:  36; 6HR MAX TEMP:  40;

ELY            FAIR      46   9  21 NE7       30.13R
HIBBING        FAIR      45  10  24 N10       30.13R
EVELETH        FAIR      46  11  24 NE9       30.13R
DULUTH HARBOR  FAIR      36  27  69 NE8       30.17R
TWO HARBORS    FAIR      45  19  36 NE8       30.13R
SILVER BAY     FAIR      41  10  28 CALM      30.12R
GRAND MARAIS     N/A     37  27  67 W5        30.12R
G MARAIS ARPRT FAIR      39  10  30 N16G23    30.10R
$$
MNZ029>031-032-039>041-046>048-054>057-064-190100-
   West Central Minnesota

CITY           SKY/WX    TMP DP  RH WIND       PRES   REMARKS
FERGUS FALLS   FAIR      46  27  46 E7        30.12R
WHEATON        CLOUDY    46  27  46 NE8       30.15S
MORRIS         CLOUDY    43  30  61 N8        30.13R
ALEXANDRIA     FAIR      45  25  45 N9        30.13R
ELBOW LAKE     FAIR      44  26  50 NE7       30.13S
WADENA         FAIR      45  21  39 NE8       30.13R
GLENWOOD       FAIR      43  27  52 N7        30.12R
APPLETON       CLOUDY    43  28  56 N13       30.13R
BENSON         CLOUDY    45  28  53 NE12      30.14R
ORTONVILLE     CLOUDY    43  30  61 NE10      30.14R
MADISON        CLOUDY    41  32  70 N8        30.13R
WILLMAR        FAIR      43  27  52 N13       30.13R
$$
MNZ033>034-036-042>043-049>051-058-059-190100-
   Central Minnesota

CITY           SKY/WX    TMP DP  RH WIND       PRES   REMARKS
ST CLOUD       FAIR      44  18  35 NE9       30.10R
6HR MIN TEMP:  36; 6HR MAX TEMP:  45;

SAUK CENTRE    FAIR      44  22  41 N9        30.11R
PAYNESVILLE    FAIR      44  25  48 NE7       30.11R
AITKIN         FAIR      45  16  31 N10G18    30.10R
PINE RIVER     FAIR      45  18  33 N9        30.16R
BRAINERD       FAIR      48  19  31 N13G22    30.12R
STAPLES        FAIR      45  16  31 N7        30.13R
LONG PRAIRIE   FAIR      43  23  45 N14       30.11R
LITTLE FALLS   FAIR      46   3  17 CALM      30.11
LITCHFIELD     FAIR      43  27  52 NE9       30.10R
BUFFALO        FAIR      41  23  48 N13G18    30.10R
MAPLE LAKE     FAIR      42  24  48 N12       30.10R
HUTCHINSON     FAIR      38  30  71 NW5       30.11R
$$
MNZ037-044-045-052-053-190100-
   East Central Minnesota

CITY           SKY/WX    TMP DP  RH WIND       PRES   REMARKS
PRINCETON      FAIR      43  16  33 N9        30.11R
MORA           FAIR      41  10  28 NE7       30.12R
RUSH CITY      FAIR      42  17  37 NE12G22   30.08R
MOOSE LAKE     FAIR      39  16  38 NE8G18    30.11R
HINCKLEY       FAIR      43  16  33 N12G21    30.10R
CLOQUET        FAIR      39   7  26 E8        30.14R
MCGREGOR       FAIR      46  19  34 E6        30.12R
$$
MNZ071>073-080-081-089-090-097-098-190100-
   Southwest Minnesota

CITY           SKY/WX    TMP DP  RH WIND       PRES   REMARKS
MONTEVIDEO     CLOUDY    39  27  60 NW7       30.12R
GRANITE FALLS  CLOUDY    37  31  80 W6        30.13R
CANBY          CLOUDY    38  29  70 NW5       30.14R
MARSHALL       PTSUNNY   34  29  82 W9        30.13R WCI  27
REDWOOD FALLS  CLOUDY    37  29  72 NW7       30.10R
OLIVIA         CLOUDY    41  32  70 W3        30.10R
PIPESTONE      MOSUNNY  N/A N/A N/A CALM      30.12R
WINDOM         LGT SNOW  32  19  59 NW7       30.10R WCI  26
WORTHINGTON    LGT SNOW  32  29  88 NW13      30.12R FOG     WCI  22
JACKSON        LGT SNOW  32  30  93 NW10      30.10R WCI  24
TRACY          PTSUNNY   35  30  82 NW6       30.11R WCI  30
SLAYTON        CLOUDY    32  30  90 NW9       30.11S WCI  24
$$
MNZ065>067-074>077-082>085-091>093-190100-
   South Central Minnesota

CITY           SKY/WX    TMP DP  RH WIND       PRES   REMARKS
MANKATO        FLURRIES  33  31  92 NW5       30.09R WCI  29
NEW ULM        CLOUDY    36  28  75 NW8       30.10R
ST JAMES       LGT SNOW  32  30  93 NW8       30.12R WCI  25
FAIRMONT       LGT SNOW  32  30  92 NW13      30.10R FOG     WCI  22
GLENCOE        FAIR      38  29  70 NW3       30.08R
OWATONNA       LGT SNOW  32  30  93 NW8       30.06R WCI  25
WASECA         LGT SNOW  32  30  93 NW7       30.08R WCI  26
ALBERT LEA     LGT SNOW  30  30 100 NW6       30.06R WCI  24
$$
MNZ078>079-086>088-094>096-190100-
   Southeast Minnesota

CITY           SKY/WX    TMP DP  RH WIND       PRES   REMARKS
ROCHESTER      LGT SNOW  31  30  96 NW12      30.02R FOG     WCI  22
6HR MIN TEMP:  30; 6HR MAX TEMP:  31; 6HR PCP:  0.41;

RED WING       FAIR      39  25  56 N3        30.04R
STANTON        CLOUDY    34  32  91 W3        30.04S
DODGE CENTER   LGT SNOW  30  30 100 NW9       30.04R WCI  22
WINONA         LGT SNOW  34  34 100 NW6       30.02R WCI  29
AUSTIN         LGT SNOW  30  28  93 NW8       30.04R WCI  23
PRESTON        LGT SNOW  31  28  91 N9        30.02R WCI  23
$$
ABBREVIATIONS USED IN REMARKS
   TC - TEMPERATURES IN CELSIUS
  WCI - WIND CHILL INDEX
   HX - HEAT INDEX
  VSB - VISIBILITY
$$




USA.gov is the U.S. government's official web portal to all federal, state and local government web resources and services.